SPACEBEE-103 (48888 NORAD) Tracking and Keplerian Element Data

This shows tracking and keplerian element data for the satellite.

Feedback or suggestion? Click here.




ElementValue
Catalog48888
NameSPACEBEE-103
Epoch Orbit1387
Epoch Day268.61167376
Epoch Year2021
RAAN36.0451
Inclination97.525
Eccentricity0.00077
Argument of Perigee301.8528
Mean Anonmoly58.1953
Mean Motion15.12265408
Decay Rate3.461E-05
L11 48888U 21059K 21268.61167376 .00003461 00000-0 20373-3 0 9991
L22 48888 97.5250 36.0451 0007700 301.8528 58.1953 15.12265408 13870

Live tracking and technical data element details for SPACEBEE-103 (NORAD 48888). SPACEBEE-103 can be tracked NOW for your location showing map with azimuth and elevation plus other details from your city location.

Track the satellite on the map from your city or location and see movement details for azimuth, elevation, latitude, longitude, range, height, and movement on the map or in text.







IsCatalogInMostPopularTable: catalog: 48888, numindb: 13
Update: records affected: 1



GetName: 48888 SPACEBEE-103

Hit Count: updated at: Sun, 26 Sep 2021 14:48:54 GMT